Home   Weather   Frankfurt an der Oder   Past weeks

Flag for Germany Past Weather in Frankfurt an der Oder, Brandenburg, Germany — Yesterday and Last 2 Weeks

41 °F


Feels Like: 41 °F
Forecast: 39 / 53 °F
Wind: 1 mph from Southeast

Location: Gorzow Wlkp

Current Time: Oct 23, 2016 at 8:27:34 AM

Latest Report: Oct 23, 2016 at 7:00 AM

Visibility: 1 mi

Pressure: 30.02 "Hg

Humidity: 97%

Dew Point: 40 °F

Location of Frankfurt an der OderLocation

Past Weather in Frankfurt an der Oder — Graph


Frankfurt an der Oder Temperature Yesterday

Maximum temperature yesterday: 48 °F (at 3:00 PM)
Minimum temperature yesterday: 41 °F (at 10:00 PM)
Average temperature yesterday: 44 °F

High & Low Weather Summary for the Past Weeks

High53 °F (Oct 14, 3:00 PM)98% (Oct 18, 6:00 AM)30.38 "Hg (Oct 18, 6:00 AM)
Low35 °F (Oct 14, 7:00 AM)64% (Oct 14, 3:00 PM)29.92 "Hg (Oct 21, 5:00 AM)
Average45 °F90%30.13 "Hg
* Reported Oct 8 7:00 AM — Oct 23 7:00 AM, Frankfurt an der Oder, Weather by CustomWeather, © 2016

Note: Actual official high and low records may vary slightly from our data, if they occured in-between our weather recording intervals... More about our weather records


Frankfurt an der Oder Weather History for the Previous 24 Hours

Scroll right to see more
Time TempWeatherWind HumidityBarometerVisibility
7:00 AM
Sun, Oct 23
41 °FFog.1 mph97%30.02 "Hg1 mi
6:00 AM41 °FFog.1 mph96%30.01 "Hg1 mi
5:00 AM40 °FFog.1 mph96%30.01 "Hg2 mi
4:00 AM41 °FFog.1 mph95%30.01 "Hg2 mi
3:00 AM41 °FFog.1 mph96%30.01 "Hg1 mi
2:00 AM41 °FFog.1 mph96%30.01 "Hg1 mi
1:00 AM40 °FFog.1 mph96%30.01 "Hg1 mi
12:00 AM41 °FFog.1 mph96%30.00 "Hg1 mi
11:00 PM
Sat, Oct 22
42 °FPassing clouds.1 mph95%30.00 "Hg2 mi
10:00 PM41 °FFog.1 mph94%29.99 "Hg1 mi
9:00 PM43 °FFog.1 mph93%29.99 "Hg2 mi
8:00 PM44 °FFog.1 mph93%29.98 "Hg2 mi
4:00 PM47 °FOvercast.1 mph82%29.96 "Hg9 mi
3:00 PM48 °FFog.2 mph80%29.95 "Hg5 mi
2:00 PM48 °FFog.2 mph77%29.96 "Hg5 mi
1:00 PM46 °FFog.1 mph89%29.96 "Hg4 mi
12:00 PM45 °FLow clouds.1 mph94%29.95 "Hg2 mi
11:00 AM44 °FLight rain. Low clouds.1 mph98%29.95 "Hg2 mi
10:00 AM43 °FLight rain. Low clouds.2 mph98%29.95 "Hg1 mi
9:00 AM43 °FRain. Low clouds.1 mph98%29.95 "Hg1 mi
8:00 AM43 °FLight rain. Low clouds.1 mph98%29.94 "Hg1 mi
Weather by CustomWeather, © 2016

See weather overviewHow to use our weather pages